FLOCK 4V-10 (46296 NORAD) Tracking and Keplerian Element Data

This shows tracking and keplerian element data for the satellite.

Feedback or suggestion? Click here.




ElementValue
Catalog46296
NameFLOCK 4V-10
Epoch Orbit1347
Epoch Day336.77528582
Epoch Year2020
RAAN48.2572
Inclination97.5111
Eccentricity0.0001722
Argument of Perigee62.1288
Mean Anonmoly298.0116
Mean Motion15.10542722
Decay Rate1.19E-05
L11 46296U 20061AA 20336.77528582 .00001190 00000-0 75994-4 0 9993
L22 46296 97.5111 48.2572 0001722 62.1288 298.0116 15.10542722 13471

Live tracking and technical data element details for FLOCK 4V-10 (NORAD 46296). FLOCK 4V-10 can be tracked NOW for your location showing map with azimuth and elevation plus other details from your city location.

Track the satellite on the map from your city or location and see movement details for azimuth, elevation, latitude, longitude, range, height, and movement on the map or in text.







IsCatalogInMostPopularTable: catalog: 46296, numindb: 18
Update: records affected: 1



GetName: 46296 FLOCK 4V-10

Hit Count: updated at: Thu, 03 Dec 2020 07:01:33 GMT